Time,TemperatureF,DewpointF,PressureIn,WindDirection,WindDirectionDegrees,WindSpeedMPH,WindSpeedGustMPH,Humidity,HourlyPrecipIn,Conditions,Clouds,dailyrainin,SoftwareType,DateUTC
2013-05-09 00:11:00,71.4,61.0,30.11,SW,221,0.0,-999.0,69,-99.99,,,0.00,weatherlink.com 1.10,2013-05-09 04:11:00,
2013-05-09 00:26:00,71.5,61.0,30.11,SW,225,0.0,-999.0,69,-99.99,,,0.00,weatherlink.com 1.10,2013-05-09 04:26:00,
2013-05-09 00:41:00,70.8,61.0,30.11,SW,225,0.0,-999.0,71,-99.99,,,0.00,weatherlink.com 1.10,2013-05-09 04:41:00,
2013-05-09 00:56:00,71.0,61.0,30.11,West,276,0.0,-999.0,71,-99.99,,,0.00,weatherlink.com 1.10,2013-05-09 04:56:00,
2013-05-09 01:11:00,70.3,62.0,30.10,West,273,0.0,-999.0,74,-99.99,,,0.00,weatherlink.com 1.10,2013-05-09 05:11:00,
2013-05-09 01:26:00,70.2,62.0,30.10,West,277,0.0,-999.0,76,-99.99,,,0.00,weatherlink.com 1.10,2013-05-09 05:26:00,
2013-05-09 01:41:00,69.5,63.0,30.09,West,277,0.0,-999.0,80,-99.99,,,0.00,weatherlink.com 1.10,2013-05-09 05:41:00,
2013-05-09 01:56:00,68.7,63.0,30.09,West,278,0.0,-999.0,82,-99.99,,,0.00,weatherlink.com 1.10,2013-05-09 05:56:00,
2013-05-09 02:11:00,68.5,64.0,30.08,West,277,0.0,-999.0,85,-99.99,,,0.00,weatherlink.com 1.10,2013-05-09 06:11:00,
2013-05-09 02:26:00,68.6,64.0,30.08,West,277,0.0,-999.0,86,-99.99,,,0.00,weatherlink.com 1.10,2013-05-09 06:26:00,
2013-05-09 02:41:00,68.6,64.0,30.07,NW,313,0.0,-999.0,85,-99.99,,,0.00,weatherlink.com 1.10,2013-05-09 06:41:00,
2013-05-09 02:56:00,69.0,64.0,30.07,WNW,298,0.0,-999.0,83,-99.99,,,0.00,weatherlink.com 1.10,2013-05-09 06:56:00,
2013-05-09 03:11:00,68.8,64.0,30.07,NW,313,0.0,-999.0,83,-99.99,,,0.00,weatherlink.com 1.10,2013-05-09 07:11:00,
2013-05-09 03:26:00,68.6,63.0,30.07,NW,319,1.0,-999.0,83,-99.99,,,0.00,weatherlink.com 1.10,2013-05-09 07:26:00,
2013-05-09 03:41:00,68.3,63.0,30.07,NW,318,0.0,-999.0,83,-99.99,,,0.00,weatherlink.com 1.10,2013-05-09 07:41:00,
2013-05-09 03:56:00,68.0,63.0,30.07,NW,305,0.0,-999.0,83,-99.99,,,0.00,weatherlink.com 1.10,2013-05-09 07:56:00,
2013-05-09 04:11:00,67.7,62.0,30.07,NW,322,0.0,-999.0,83,-99.99,,,0.00,weatherlink.com 1.10,2013-05-09 08:11:00,
2013-05-09 04:26:00,67.3,62.0,30.07,NW,322,0.0,-999.0,83,-99.99,,,0.00,weatherlink.com 1.10,2013-05-09 08:26:00,
2013-05-09 04:41:00,67.1,62.0,30.06,NW,318,0.0,-999.0,84,-99.99,,,0.00,weatherlink.com 1.10,2013-05-09 08:41:00,
2013-05-09 04:56:00,67.1,62.0,30.06,WNW,292,0.0,-999.0,84,-99.99,,,0.00,weatherlink.com 1.10,2013-05-09 08:56:00,
2013-05-09 05:11:00,66.6,62.0,30.06,NW,307,0.0,-999.0,85,-99.99,,,0.00,weatherlink.com 1.10,2013-05-09 09:11:00,
2013-05-09 05:26:00,66.3,62.0,30.06,NW,325,1.0,-999.0,86,-99.99,,,0.00,weatherlink.com 1.10,2013-05-09 09:26:00,
2013-05-09 05:41:00,66.1,62.0,30.06,NW,319,0.0,-999.0,85,-99.99,,,0.00,weatherlink.com 1.10,2013-05-09 09:41:00,
2013-05-09 05:56:00,65.8,62.0,30.07,NW,319,0.0,-999.0,86,-99.99,,,0.00,weatherlink.com 1.10,2013-05-09 09:56:00,
2013-05-09 06:11:00,65.6,62.0,30.07,NW,319,0.0,-999.0,88,-99.99,,,0.00,weatherlink.com 1.10,2013-05-09 10:11:00,
2013-05-09 06:26:00,65.4,62.0,30.07,NW,319,0.0,-999.0,87,-99.99,,,0.00,weatherlink.com 1.10,2013-05-09 10:26:00,
2013-05-09 06:41:00,65.2,61.0,30.08,NW,319,0.0,-999.0,87,-99.99,,,0.00,weatherlink.com 1.10,2013-05-09 10:41:00,
2013-05-09 06:56:00,65.3,61.0,30.08,NW,317,1.0,-999.0,87,-99.99,,,0.00,weatherlink.com 1.10,2013-05-09 10:56:00,
2013-05-09 07:11:00,65.7,62.0,30.09,NW,318,0.0,-999.0,87,-99.99,,,0.00,weatherlink.com 1.10,2013-05-09 11:11:00,
2013-05-09 07:26:00,67.0,62.0,30.09,NW,319,0.0,-999.0,85,-99.99,,,0.00,weatherlink.com 1.10,2013-05-09 11:26:00,
2013-05-09 07:41:00,68.0,63.0,30.09,NW,314,0.0,-999.0,83,-99.99,,,0.00,weatherlink.com 1.10,2013-05-09 11:41:00,
2013-05-09 07:56:00,69.1,64.0,30.09,ENE,57,0.0,-999.0,83,-99.99,,,0.00,weatherlink.com 1.10,2013-05-09 11:56:00,
2013-05-09 08:11:00,70.1,64.0,30.10,NW,307,1.0,-999.0,82,-99.99,,,0.00,weatherlink.com 1.10,2013-05-09 12:11:00,
2013-05-09 08:27:00,71.6,65.0,30.10,WNW,283,0.0,-999.0,80,-99.99,,,0.00,weatherlink.com 1.10,2013-05-09 12:27:00,
2013-05-09 08:42:00,73.0,67.0,30.10,NNE,24,1.0,-999.0,80,-99.99,,,0.00,weatherlink.com 1.10,2013-05-09 12:42:00,
2013-05-09 08:57:00,75.2,67.0,30.11,NW,322,0.0,-999.0,76,-99.99,,,0.00,weatherlink.com 1.10,2013-05-09 12:57:00,
2013-05-09 09:12:00,77.2,67.0,30.11,SE,134,0.0,-999.0,71,-99.99,,,0.00,weatherlink.com 1.10,2013-05-09 13:12:00,
2013-05-09 09:27:00,78.5,68.0,30.11,WNW,291,0.0,-999.0,69,-99.99,,,0.00,weatherlink.com 1.10,2013-05-09 13:27:00,
2013-05-09 09:42:00,80.2,67.0,30.12,South,172,1.0,-999.0,65,-99.99,,,0.00,weatherlink.com 1.10,2013-05-09 13:42:00,
2013-05-09 09:57:00,81.4,67.0,30.12,SSW,210,0.0,-999.0,61,-99.99,,,0.00,weatherlink.com 1.10,2013-05-09 13:57:00,
2013-05-09 10:12:00,82.5,64.0,30.12,South,172,0.0,-999.0,54,-99.99,,,0.00,weatherlink.com 1.10,2013-05-09 14:12:00,
2013-05-09 10:27:00,83.0,65.0,30.12,South,179,0.0,-999.0,55,-99.99,,,0.00,weatherlink.com 1.10,2013-05-09 14:27:00,
2013-05-09 10:42:00,84.1,66.0,30.13,ENE,74,1.0,-999.0,54,-99.99,,,0.00,weatherlink.com 1.10,2013-05-09 14:42:00,
2013-05-09 10:57:00,84.7,67.0,30.12,ESE,118,0.0,-999.0,56,-99.99,,,0.00,weatherlink.com 1.10,2013-05-09 14:57:00,
2013-05-09 11:12:00,85.6,67.0,30.12,SSE,153,4.0,-999.0,54,-99.99,,,0.00,weatherlink.com 1.10,2013-05-09 15:12:00,
2013-05-09 11:27:00,86.2,66.0,30.12,West,279,0.0,-999.0,52,-99.99,,,0.00,weatherlink.com 1.10,2013-05-09 15:27:00,
2013-05-09 11:43:00,87.0,68.0,30.12,SSE,161,1.0,-999.0,53,-99.99,,,0.00,weatherlink.com 1.10,2013-05-09 15:43:00,
2013-05-09 11:58:00,87.1,69.0,30.12,South,169,2.0,-999.0,55,-99.99,,,0.00,weatherlink.com 1.10,2013-05-09 15:58:00,
2013-05-09 12:13:00,86.1,68.0,30.13,ESE,116,0.0,-999.0,55,-99.99,,,0.00,weatherlink.com 1.10,2013-05-09 16:13:00,
2013-05-09 12:27:00,88.2,69.0,30.12,ESE,123,2.0,-999.0,53,-99.99,,,0.00,weatherlink.com 1.10,2013-05-09 16:27:00,
2013-05-09 12:58:00,86.3,70.0,30.11,South,169,4.0,-999.0,59,-99.99,,,0.00,weatherlink.com 1.10,2013-05-09 16:58:00,
2013-05-09 13:13:00,87.1,71.0,30.12,SSW,195,5.0,-999.0,59,-99.99,,,0.00,weatherlink.com 1.10,2013-05-09 17:13:00,
2013-05-09 13:27:00,87.4,71.0,30.11,East,100,9.0,-999.0,58,-99.99,,,0.00,weatherlink.com 1.10,2013-05-09 17:27:00,
2013-05-09 13:43:00,86.6,71.0,30.11,SSE,162,7.0,-999.0,59,-99.99,,,0.00,weatherlink.com 1.10,2013-05-09 17:43:00,
2013-05-09 13:58:00,85.7,70.0,30.11,East,90,5.0,-999.0,59,-99.99,,,0.00,weatherlink.com 1.10,2013-05-09 17:58:00,
2013-05-09 14:12:00,86.4,69.0,30.11,South,182,7.0,-999.0,57,-99.99,,,0.00,weatherlink.com 1.10,2013-05-09 18:12:00,
2013-05-09 14:27:00,85.6,71.0,30.10,South,169,2.0,-999.0,62,-99.99,,,0.00,weatherlink.com 1.10,2013-05-09 18:27:00,
2013-05-09 14:42:00,85.8,71.0,30.09,ESE,123,7.0,-999.0,61,-99.99,,,0.00,weatherlink.com 1.10,2013-05-09 18:42:00,
2013-05-09 14:58:00,86.2,71.0,30.09,SE,137,2.0,-999.0,61,-99.99,,,0.00,weatherlink.com 1.10,2013-05-09 18:58:00,
2013-05-09 15:13:00,87.0,70.0,30.09,SE,144,5.0,-999.0,57,-99.99,,,0.00,weatherlink.com 1.10,2013-05-09 19:13:00,
2013-05-09 15:27:00,86.0,71.0,30.08,SE,141,0.0,-999.0,61,-99.99,,,0.00,weatherlink.com 1.10,2013-05-09 19:27:00,
2013-05-09 15:42:00,86.1,71.0,30.07,East,80,1.0,-999.0,61,-99.99,,,0.00,weatherlink.com 1.10,2013-05-09 19:42:00,
2013-05-09 15:58:00,87.0,71.0,30.06,SE,128,2.0,-999.0,59,-99.99,,,0.00,weatherlink.com 1.10,2013-05-09 19:58:00,
2013-05-09 16:13:00,86.7,72.0,30.06,SSW,195,1.0,-999.0,61,-99.99,,,0.00,weatherlink.com 1.10,2013-05-09 20:13:00,
2013-05-09 16:27:00,87.0,72.0,30.05,SE,133,5.0,-999.0,62,-99.99,,,0.00,weatherlink.com 1.10,2013-05-09 20:27:00,
2013-05-09 16:42:00,86.7,72.0,30.05,SSE,149,5.0,-999.0,62,-99.99,,,0.00,weatherlink.com 1.10,2013-05-09 20:42:00,
2013-05-09 16:57:00,86.3,73.0,30.05,South,170,0.0,-999.0,65,-99.99,,,0.00,weatherlink.com 1.10,2013-05-09 20:57:00,
2013-05-09 17:12:00,85.6,73.0,30.05,ENE,78,3.0,-999.0,65,-99.99,,,0.00,weatherlink.com 1.10,2013-05-09 21:12:00,
2013-05-09 17:27:00,85.3,73.0,30.05,SE,126,5.0,-999.0,66,-99.99,,,0.00,weatherlink.com 1.10,2013-05-09 21:27:00,
2013-05-09 17:42:00,85.2,73.0,30.06,SE,142,2.0,-999.0,67,-99.99,,,0.00,weatherlink.com 1.10,2013-05-09 21:42:00,
2013-05-09 17:57:00,83.8,73.0,30.06,East,89,3.0,-999.0,70,-99.99,,,0.00,weatherlink.com 1.10,2013-05-09 21:57:00,
2013-05-09 18:12:00,82.8,73.0,30.05,SE,143,2.0,-999.0,71,-99.99,,,0.00,weatherlink.com 1.10,2013-05-09 22:12:00,
2013-05-09 18:27:00,81.7,72.0,30.06,SE,125,2.0,-999.0,73,-99.99,,,0.00,weatherlink.com 1.10,2013-05-09 22:27:00,
2013-05-09 18:42:00,81.1,73.0,30.06,South,175,1.0,-999.0,75,-99.99,,,0.00,weatherlink.com 1.10,2013-05-09 22:42:00,
2013-05-09 18:57:00,80.1,73.0,30.06,SE,132,1.0,-999.0,79,-99.99,,,0.00,weatherlink.com 1.10,2013-05-09 22:57:00,
2013-05-09 19:12:00,80.8,74.0,30.07,East,101,1.0,-999.0,79,-99.99,,,0.00,weatherlink.com 1.10,2013-05-09 23:12:00,
2013-05-09 19:27:00,80.7,73.0,30.06,ESE,117,6.0,-999.0,77,-99.99,,,0.00,weatherlink.com 1.10,2013-05-09 23:27:00,
2013-05-09 19:42:00,79.7,73.0,30.06,SE,136,8.0,-999.0,79,-99.99,,,0.00,weatherlink.com 1.10,2013-05-09 23:42:00,
2013-05-09 19:58:00,79.4,72.0,30.08,SE,136,2.0,-999.0,79,-99.99,,,0.00,weatherlink.com 1.10,2013-05-09 23:58:00,
2013-05-09 20:13:00,79.3,73.0,30.08,SSE,165,2.0,-999.0,81,-99.99,,,0.00,weatherlink.com 1.10,2013-05-10 00:13:00,
2013-05-09 20:27:00,78.9,73.0,30.07,SE,144,0.0,-999.0,82,-99.99,,,0.00,weatherlink.com 1.10,2013-05-10 00:27:00,
2013-05-09 20:43:00,78.6,73.0,30.08,SE,136,0.0,-999.0,83,-99.99,,,0.00,weatherlink.com 1.10,2013-05-10 00:43:00,
2013-05-09 20:58:00,78.5,73.0,30.09,SE,126,0.0,-999.0,83,-99.99,,,0.00,weatherlink.com 1.10,2013-05-10 00:58:00,
2013-05-09 21:13:00,78.3,73.0,30.09,SSE,149,1.0,-999.0,84,-99.99,,,0.00,weatherlink.com 1.10,2013-05-10 01:13:00,
2013-05-09 21:27:00,78.1,73.0,30.08,East,101,2.0,-999.0,84,-99.99,,,0.00,weatherlink.com 1.10,2013-05-10 01:27:00,
2013-05-09 21:43:00,78.0,73.0,30.09,SE,135,2.0,-999.0,85,-99.99,,,0.00,weatherlink.com 1.10,2013-05-10 01:43:00,
2013-05-09 21:58:00,78.1,73.0,30.10,South,180,0.0,-999.0,85,-99.99,,,0.00,weatherlink.com 1.10,2013-05-10 01:58:00,
2013-05-09 22:13:00,78.1,73.0,30.10,ESE,114,2.0,-999.0,85,-99.99,,,0.00,weatherlink.com 1.10,2013-05-10 02:13:00,
2013-05-09 22:27:00,78.0,73.0,30.10,ESE,111,1.0,-999.0,85,-99.99,,,0.00,weatherlink.com 1.10,2013-05-10 02:27:00,
2013-05-09 22:43:00,77.8,73.0,30.10,SE,126,0.0,-999.0,85,-99.99,,,0.00,weatherlink.com 1.10,2013-05-10 02:43:00,
2013-05-09 22:58:00,77.7,73.0,30.11,SSE,150,0.0,-999.0,85,-99.99,,,0.00,weatherlink.com 1.10,2013-05-10 02:58:00,
2013-05-09 23:13:00,77.7,73.0,30.11,ESE,108,1.0,-999.0,84,-99.99,,,0.00,weatherlink.com 1.10,2013-05-10 03:13:00,
2013-05-09 23:27:00,77.3,72.0,30.10,SE,137,0.0,-999.0,84,-99.99,,,0.00,weatherlink.com 1.10,2013-05-10 03:27:00,
2013-05-09 23:43:00,77.0,72.0,30.11,SE,124,0.0,-999.0,85,-99.99,,,0.00,weatherlink.com 1.10,2013-05-10 03:43:00,
2013-05-09 23:58:00,76.8,72.0,30.12,SE,146,0.0,-999.0,86,-99.99,,,0.00,weatherlink.com 1.10,2013-05-10 03:58:00,